Tracking 22780 objects as of 11-Apr-2021
HD Live streaming from Space Station
objects crossing your sky now

EKRAN 1

Track EKRAN 1 now!
EKRAN 1 is classified as:


NORAD ID: 9503
Int'l Code: 1976-107A
Perigee: 35,495.6 km
Apogee: 36,064.7 km
Inclination: 8.3 °
Period: 1,435.4 minutes
Semi major axis: 42151 km
RCS: 3.5481 m2 (large)
Launch date: October 26, 1976
Source: Commonwealth of Independent States (former USSR) (CIS)
Launch site: TYURATAM MISSILE AND SPACE COMPLEX (TTMTR)
aabbcc
Your satellite tracking list
Your tracking list is empty




NASA's NSSDC Master Catalog

Two Line Element Set (TLE):
1 09503U 76107A   21100.60240024 -.00000201  00000-0  00000-0 0  9994
2 09503   8.3399 296.6930 0067506 130.4698  71.4686  1.00320423179522
Source of the keplerian elements: AFSPC